Tracking 25710 objects as of 6-Jul-2022
HD Live streaming from Space Station
objects crossing your sky now

FENGYUN 1C DEB

Track FENGYUN 1C DEB now!
10-day predictions


NORAD ID: 30867
Int'l Code: 1999-025AXD
Perigee: 815.8 km
Apogee: 911.6 km
Inclination: 97.9 °
Period: 102.1 minutes
Semi major axis: 7234 km
RCS: 0.0166 m2 (small)
Launch date: May 10, 1999
Source: People's Republic of China (PRC)
Launch site: Taiyaun Space Center, China (TSC)

Note: This is SATELLITE DEBRIS
aabbcc
Your satellite tracking list
Your tracking list is empty




NASA's NSSDC Master Catalog

Two Line Element Set (TLE):
1 30867U 99025AXD 22187.08456841  .00001524  00000-0  85291-3 0  9995
2 30867  97.8579 220.6314 0066161  89.7478 297.0299 14.10824540787854
Source of the keplerian elements: AFSPC